Location: Betra
(48.4113°N, 8.6634°E)
Time: 20:50:22
(UTC+00:00)

Cosmos 2297 Rocket - Pass Details

Date: 23 May 2024
Orbit: 839 x 842 km, 71.0° (Epoch: 16 June)

Event Time Altitude Azimuth Distance (km) Brightness Sun altitude
Rises 02:46:06 0° 164° (SSE) 3,379 5.1 -7.3°
Reaches altitude 10° 02:49:01 10° 150° (SSE) 2,450 4.5 -6.9°
Maximum altitude 02:53:14 22° 101° (E) 1,752 4.4 -6.4°
Drops below altitude 10° 02:57:28 10° 52° (NE) 2,464 6.5 -5.9°
Sets 03:00:24 0° 38° (NE) 3,404 7.5 -5.5°
